Whitefield, NH

2:06 AM EDT on May 29, 2017 (GMT -0400)
Mount Washington Regional

Weather History for KHIE - September, 2014

Change the Weather History Date:

Monday, September 1, 2014

  Actual Average Record
Temperature  
Mean Temperature 71 °F -  
Max Temperature 82 °F 73 °F 87 °F (2000)
Min Temperature 59 °F 43 °F 34 °F (2002)
Cooling Degree Days 6    
Growing Degree Days 21 (Base 50)    
Moisture  
Dew Point 62 °F    
Average Humidity 84    
Maximum Humidity 100    
Minimum Humidity 52    
Precipitation  
Precipitation 0.00 in - - ()
Sea Level Pressure  
Sea Level Pressure 29.96 in    
Wind  
Wind Speed 1 mph (WSW)    
Max Wind Speed 8 mph    
Max Gust Speed -    
Visibility 4 miles    
Events Fog    
Averages and records for this station are not official NWS values.
T = Trace of Precipitation, MM = Missing Value Source: NWS Daily Summary

Daily Weather History Graph

Daily Weather History Graph

Search for Another Location

Airport or City:

Trip Planner

Search our weather history database for the weather conditions in past years. The results will help you decide how hot, cold, wet, or windy it might be!

Date:

Astronomy

Sep. 01, 2014 Rise Set
Actual Time 6:08 AM EDT 7:22 PM EDT
Civil Twilight 5:38 AM EDT 7:52 PM EDT
Nautical Twilight 5:02 AM EDT 8:28 PM EDT
Astronomical Twilight 4:24 AM EDT 9:06 PM EDT
Moon 1:07 PM EDT (9/1) 11:05 PM EDT (9/1)
Length of Visible Light 14h 13m
Length of Day
13h 13m
Waxing Crescent, 42% of the Moon is Illuminated
Sep 1
Waxing Crescent
Sep 2
First Quarter
Sep 8
Full
Sep 15
Last Quarter
Sep 24
New

Hourly Weather History & Observations

Time (EDT) Temp. Heat Index Dew Point Humidity Pressure Visibility Wind Dir Wind Speed Gust Speed Precip Events Conditions
12:45 AM 64.9 °F - 63.0 °F 93% 29.96 in 1.0 mi Calm Calm - N/A   Mostly Cloudy
12:52 AM 64.9 °F - 63.0 °F 93% 29.95 in 0.8 mi Calm Calm - N/A   Mostly Cloudy
1:25 AM 64.9 °F - 63.0 °F 93% 29.96 in 1.2 mi Calm Calm - N/A   Overcast
1:52 AM 64.9 °F - 63.0 °F 93% 29.95 in 0.8 mi Calm Calm - N/A   Overcast
2:15 AM 63.0 °F - 62.1 °F 97% 29.96 in 0.2 mi Calm Calm - N/A Fog Fog
2:50 AM 62.6 °F - 62.6 °F 100% 29.96 in 0.5 mi Calm Calm - N/A Fog Fog
2:52 AM 63.0 °F - 62.1 °F 97% 29.96 in 0.5 mi Calm Calm - N/A Fog Fog
3:12 AM 63.0 °F - 61.0 °F 93% 29.96 in 1.2 mi Calm Calm - N/A   Mostly Cloudy
3:24 AM 61.0 °F - 60.1 °F 97% 29.97 in 0.8 mi Calm Calm - N/A   Mostly Cloudy
3:37 AM 62.1 °F - 60.1 °F 93% 29.97 in 0.2 mi Calm Calm - N/A Fog Fog
3:52 AM 62.1 °F - 60.1 °F 93% 29.96 in 0.2 mi Calm Calm - N/A Fog Fog
4:52 AM 62.1 °F - 60.1 °F 93% 29.97 in 0.2 mi Calm Calm - N/A Fog Fog
5:52 AM 60.1 °F - 59.0 °F 96% 29.99 in 0.2 mi Calm Calm - N/A Fog Fog
6:52 AM 62.1 °F - 61.0 °F 96% 30.00 in 0.2 mi Calm Calm - N/A Fog Fog
7:52 AM 64.9 °F - 63.0 °F 93% 30.00 in 0.2 mi Calm Calm - N/A Fog Fog
8:52 AM 66.9 °F - 64.9 °F 93% 30.00 in 0.2 mi Calm Calm - N/A Fog Fog
9:09 AM 68.0 °F - 66.0 °F 93% 30.00 in 1.2 mi Calm Calm - N/A   Overcast
9:17 AM 68.0 °F - 66.0 °F 93% 30.00 in 3.0 mi Calm Calm - N/A   Overcast
9:52 AM 73.0 °F - 66.9 °F 81% 29.99 in 10.0 mi Calm Calm - N/A   Partly Cloudy
11:52 AM 79.0 °F - 64.0 °F 60% 29.97 in 10.0 mi WSW 5.8 mph - N/A   Clear
12:52 PM 79.0 °F - 64.9 °F 62% 29.96 in 10.0 mi West 8.1 mph - N/A   Mostly Cloudy
1:52 PM 82.0 °F 83.1 °F 63.0 °F 52% 29.95 in 10.0 mi Variable 5.8 mph - N/A   Partly Cloudy
2:52 PM 82.0 °F 83.1 °F 63.0 °F 52% 29.94 in 10.0 mi North - - N/A   Partly Cloudy
3:52 PM 81.0 °F 82.5 °F 64.0 °F 56% 29.93 in 10.0 mi West 5.8 mph - N/A   Clear
4:52 PM 82.0 °F 83.1 °F 63.0 °F 52% 29.92 in 10.0 mi West 6.9 mph - N/A   Partly Cloudy
5:52 PM 81.0 °F 81.9 °F 62.1 °F 52% 29.93 in 10.0 mi SW 5.8 mph - N/A   Clear
6:52 PM 78.1 °F - 63.0 °F 60% 29.92 in 10.0 mi SW 3.5 mph - N/A   Clear
7:52 PM 69.1 °F - 64.0 °F 84% 29.94 in 9.0 mi Calm Calm - N/A   Clear
8:52 PM 64.9 °F - 62.1 °F 90% 29.96 in 8.0 mi Calm Calm - N/A   Clear
9:52 PM 63.0 °F - 61.0 °F 93% 29.95 in 7.0 mi Calm Calm - N/A   Clear
10:22 PM 62.1 °F - 59.0 °F 90% 29.96 in 2.0 mi Calm Calm - N/A   Clear
10:52 PM 61.0 °F - 59.0 °F 93% 29.96 in 6.0 mi Calm Calm - N/A   Clear
11:52 PM 59.0 °F - 57.0 °F 93% 29.96 in 6.0 mi Calm Calm - N/A   Clear